Meteo pe oră la Resht

Astăzi, 31 Octombrie, Sâmbătă

Timp Temperatura Precipitaţii Vânt Presiune Umiditate
00:00 +21°C° 0 mm 0 m/s 762 mmHg 55%
01:00 +20°C° 0 mm 0 m/s 762 mmHg 56%
02:00 +22°C° 0 mm 1 m/s 762 mmHg 56%
03:00 +22°C° 0 mm 1 m/s 762 mmHg 56%
04:00 +22°C° 0 mm 1 m/s 762 mmHg 57%
05:00 +21°C° 0 mm 1 m/s 763 mmHg 57%
06:00 +21°C° 0 mm 1 m/s 763 mmHg 57%
07:00 +23°C° 0 mm 1 m/s 763 mmHg 52%
08:00 +25°C° 0 mm 1 m/s 763 mmHg 48%
09:00 +27°C° 0 mm 1 m/s 763 mmHg 44%
10:00 +29°C° 0 mm 1 m/s 763 mmHg 40%
11:00 +30°C° 0 mm 1 m/s 762 mmHg 37%
12:00 +31°C° 0 mm 1 m/s 762 mmHg 34%
13:00 +31°C° 0 mm 1 m/s 761 mmHg 37%
14:00 +30°C° 0 mm 2 m/s 761 mmHg 41%
15:00 +30°C° 0 mm 2 m/s 761 mmHg 45%
16:00 +28°C° 0 mm 1 m/s 761 mmHg 51%
17:00 +26°C° 0 mm 1 m/s 761 mmHg 56%
18:00 +22°C° 0 mm 0 m/s 761 mmHg 62%
19:00 +22°C° 0 mm 0 m/s 761 mmHg 60%
20:00 +21°C° 0 mm 0 m/s 761 mmHg 58%
21:00 +21°C° 0 mm 0 m/s 761 mmHg 56%
22:00 +23°C° 0 mm 1 m/s 761 mmHg 53%
23:00 +23°C° 0 mm 1 m/s 761 mmHg 51%

Mâine, 1 Noiembrie, Duminică

Timp Temperatura Precipitaţii Vânt Presiune Umiditate
00:00 +23°C° 0 mm 1 m/s 761 mmHg 48%
01:00 +23°C° 0 mm 1 m/s 761 mmHg 45%
02:00 +23°C° 0 mm 1 m/s 761 mmHg 42%
03:00 +23°C° 0 mm 2 m/s 761 mmHg 39%
04:00 +23°C° 0 mm 1 m/s 761 mmHg 37%
05:00 +23°C° 0 mm 1 m/s 761 mmHg 34%
06:00 +23°C° 0 mm 1 m/s 762 mmHg 32%
07:00 +25°C° 0 mm 1 m/s 762 mmHg 31%
08:00 +27°C° 0 mm 1 m/s 762 mmHg 30%
09:00 +28°C° 0 mm 1 m/s 762 mmHg 29%
10:00 +30°C° 0 mm 1 m/s 762 mmHg 28%
11:00 +31°C° 0 mm 2 m/s 762 mmHg 27%
12:00 +32°C° 0 mm 2 m/s 762 mmHg 26%
13:00 +30°C° 0 mm 2 m/s 762 mmHg 34%
14:00 +29°C° 0 mm 2 m/s 762 mmHg 41%
15:00 +28°C° 0 mm 2 m/s 762 mmHg 48%
16:00 +26°C° 0 mm 2 m/s 762 mmHg 55%
17:00 +24°C° 0 mm 1 m/s 762 mmHg 62%
18:00 +22°C° 0 mm 1 m/s 763 mmHg 69%
19:00 +22°C° 0 mm 1 m/s 763 mmHg 68%
20:00 +22°C° 0 mm 1 m/s 763 mmHg 67%
21:00 +22°C° 0 mm 1 m/s 763 mmHg 66%
22:00 +22°C° 0 mm 1 m/s 763 mmHg 64%
23:00 +19°C° 0 mm 0 m/s 763 mmHg 62%

Poimâine, 2 Noiembrie, Luni

Timp Temperatura Precipitaţii Vânt Presiune Umiditate
00:00 +19°C° 0 mm 0 m/s 763 mmHg 61%
01:00 +19°C° 0 mm 0 m/s 763 mmHg 58%
02:00 +19°C° 0 mm 0 m/s 763 mmHg 56%
03:00 +21°C° 0 mm 1 m/s 763 mmHg 54%
04:00 +21°C° 0 mm 1 m/s 763 mmHg 52%
05:00 +20°C° 0 mm 1 m/s 764 mmHg 50%
06:00 +20°C° 0 mm 1 m/s 764 mmHg 48%
07:00 +22°C° 0 mm 1 m/s 764 mmHg 44%
08:00 +22°C° 0 mm 0 m/s 764 mmHg 40%
09:00 +24°C° 0 mm 0 m/s 764 mmHg 36%
10:00 +27°C° 0 mm 1 m/s 764 mmHg 34%
11:00 +28°C° 0 mm 1 m/s 764 mmHg 32%
12:00 +29°C° 0 mm 1 m/s 764 mmHg 30%
13:00 +29°C° 0 mm 2 m/s 763 mmHg 37%
14:00 +28°C° 0 mm 2 m/s 763 mmHg 44%
15:00 +27°C° 0 mm 2 m/s 763 mmHg 52%
16:00 +25°C° 0 mm 2 m/s 763 mmHg 59%
17:00 +23°C° 0 mm 1 m/s 764 mmHg 66%
18:00 +22°C° 0 mm 1 m/s 764 mmHg 74%
19:00 +21°C° 0 mm 1 m/s 764 mmHg 77%
20:00 +21°C° 0 mm 1 m/s 765 mmHg 80%
21:00 +20°C° 0 mm 1 m/s 765 mmHg 84%
22:00 +20°C° 0 mm 1 m/s 765 mmHg 85%
23:00 +20°C° 0 mm 1 m/s 765 mmHg 87%

3 Noiembrie, Marţi

Timp Temperatura Precipitaţii Vânt Presiune Umiditate
00:00 +20°C° 0 mm 1 m/s 765 mmHg 89%
01:00 +20°C° 0 mm 1 m/s 765 mmHg 88%
02:00 +20°C° 0 mm 1 m/s 765 mmHg 87%
03:00 +18°C° 0 mm 0 m/s 765 mmHg 86%
04:00 +17°C° 0 mm 0 m/s 765 mmHg 85%
05:00 +17°C° 0 mm 0 m/s 765 mmHg 85%
06:00 +17°C° 0 mm 0 m/s 765 mmHg 85%
07:00 +20°C° 0 mm 1 m/s 765 mmHg 82%
08:00 +21°C° 0 mm 1 m/s 766 mmHg 79%
09:00 +22°C° 0 mm 1 m/s 766 mmHg 76%
10:00 +23°C° 0 mm 1 m/s 766 mmHg 74%
11:00 +23°C° 0 mm 1 m/s 765 mmHg 72%
12:00 +24°C° 0 mm 1 m/s 765 mmHg 69%
13:00 +23°C° 0 mm 1 m/s 765 mmHg 70%
14:00 +23°C° 0 mm 1 m/s 765 mmHg 70%
15:00 +23°C° 0 mm 1 m/s 765 mmHg 71%
16:00 +23°C° 0 mm 1 m/s 765 mmHg 74%
17:00 +22°C° 0 mm 1 m/s 765 mmHg 77%
18:00 +21°C° 0 mm 1 m/s 765 mmHg 80%
19:00 +21°C° 0 mm 1 m/s 765 mmHg 81%
20:00 +20°C° 0 mm 1 m/s 765 mmHg 82%
21:00 +19°C° 0 mm 1 m/s 765 mmHg 84%
22:00 +19°C° 0 mm 1 m/s 765 mmHg 85%
23:00 +17°C° 0 mm 0 m/s 765 mmHg 87%

4 Noiembrie, Miercuri

Timp Temperatura Precipitaţii Vânt Presiune Umiditate
00:00 +17°C° 0 mm 0 m/s 765 mmHg 88%
01:00 +17°C° 0 mm 0 m/s 765 mmHg 88%
02:00 +17°C° 0 mm 0 m/s 765 mmHg 88%
03:00 +17°C° 0 mm 0 m/s 765 mmHg 87%
04:00 +17°C° 0 mm 0 m/s 765 mmHg 86%
05:00 +17°C° 0 mm 0 m/s 766 mmHg 86%
06:00 +17°C° 0 mm 0 m/s 766 mmHg 85%
07:00 +18°C° 0 mm 0 m/s 766 mmHg 80%
08:00 +21°C° 0 mm 1 m/s 766 mmHg 74%
09:00 +22°C° 0 mm 1 m/s 766 mmHg 69%
10:00 +23°C° 0 mm 1 m/s 765 mmHg 64%
11:00 +25°C° 0 mm 2 m/s 765 mmHg 59%
12:00 +26°C° 0 mm 2 m/s 765 mmHg 54%
13:00 +25°C° 0 mm 2 m/s 764 mmHg 58%
14:00 +25°C° 0 mm 3 m/s 764 mmHg 61%
15:00 +24°C° 0 mm 3 m/s 764 mmHg 65%
16:00 +23°C° 0 mm 2 m/s 764 mmHg 71%
17:00 +20°C° 0 mm 2 m/s 764 mmHg 77%
18:00 +20°C° 0 mm 1 m/s 764 mmHg 83%
19:00 +20°C° 0 mm 1 m/s 764 mmHg 84%
20:00 +19°C° 0 mm 1 m/s 764 mmHg 85%
21:00 +19°C° 0 mm 1 m/s 764 mmHg 86%
22:00 +19°C° 0 mm 1 m/s 764 mmHg 87%
23:00 +17°C° 0 mm 0 m/s 764 mmHg 87%

5 Noiembrie, Joi

Timp Temperatura Precipitaţii Vânt Presiune Umiditate
00:00 +16°C° 0 mm 0 m/s 764 mmHg 88%
01:00 +16°C° 0 mm 0 m/s 764 mmHg 88%
02:00 +16°C° 0 mm 0 m/s 764 mmHg 89%
03:00 +16°C° 0 mm 0 m/s 764 mmHg 89%
04:00 +16°C° 0 mm 0 m/s 764 mmHg 89%
05:00 +16°C° 0 mm 0 m/s 765 mmHg 89%
06:00 +16°C° 0 mm 0 m/s 765 mmHg 89%
07:00 +17°C° 0 mm 0 m/s 765 mmHg 85%
08:00 +18°C° 0 mm 0 m/s 765 mmHg 80%
09:00 +19°C° 0 mm 0 m/s 765 mmHg 76%
10:00 +22°C° 0 mm 1 m/s 765 mmHg 74%
11:00 +22°C° 0 mm 1 m/s 764 mmHg 71%
12:00 +23°C° 0 mm 1 m/s 764 mmHg 69%
13:00 +22°C° 0 mm 1 m/s 764 mmHg 71%
14:00 +22°C° 0 mm 1 m/s 763 mmHg 72%
15:00 +22°C° 0 mm 1 m/s 763 mmHg 74%
16:00 +21°C° 0 mm 1 m/s 763 mmHg 76%
17:00 +21°C° 0 mm 1 m/s 764 mmHg 77%
18:00 +21°C° 0 mm 1 m/s 764 mmHg 79%
19:00 +20°C° 0 mm 1 m/s 764 mmHg 79%
20:00 +18°C° 0 mm 0 m/s 764 mmHg 79%
21:00 +18°C° 0 mm 0 m/s 764 mmHg 79%
22:00 +18°C° 0 mm 0 m/s 764 mmHg 79%
23:00 +18°C° 0 mm 0 m/s 764 mmHg 79%
Arată mai mult

Formular de consimțământ

Meteoprog și furnizorii noștri de servicii pot stoca și accesa date personale, precum cookies, identificatori de dispozitiv sau alte tehnologii similare pe dispozitivul dumneavoastră și procesa astfel de date pentru a personaliza conținutul și reclamele, dar și pentru a oferi caracteristici de social media și pentru a analiza traficul.

  • Stocarea și/sau accesarea informațiilor pe dispozitivul dumneavoastră

    Cookies, identificatori de dispozitiv sau alte informații pot fi stocate sau accesate pe dispozitiv în scopurile indicate mai sus.

  • Reclame și conținut personalizat, evaluarea reclamelor și a conținutului, informații despre audiențe și dezvoltarea produselor

    Reclamele și conținutul pot fi personalizate pe baza unui profil. Pot fi adăugate date suplimentare pentru a personaliza mai bine reclamele și conținutul. Performanța reclamelor și conținutului poate fi măsurată. Pot fi obținute informații despre utilizatorii care au văzut reclamele și conținutul. Aceste date pot fi utilizate pentru a dezvolta sau îmbunătăți experiența utilizatorilor, sistemele și software-ul.

Dând clic pe ‘Sunt de acord’, permiteți utilizarea cookie-urilor menționate, a identificatorilor de dispozitiv, balizelor web sau altor tehnologii similare. Setările pot fi modificate din browser-ul dispozitivului dumneavoastră.

În anumite scopuri, interesele legitime pot prima asupra consimțământului. Puteți citi mai multe informații în acest sens în Politica privind Confidențialitatea Datelor și Cookie.